When you browse on this site, cookies collect data to enhance your experience and personalize the content and advertising you see.
Visit our Privacy Policy to learn more. By continuing to use the site, you agree to this use of cookies and data.
  • In Slovakia
  • List of Countries
  • For 7 days
  • Water Temperature
  • Weather Map
  • Weather Widgets
  • user-avatar
    Login

    Hourly Weather Emona

    Today, 23 August, Friday

    Time Temperature Precipitation Wind Pressure Humidity
    00:00 +25°C° 0 mm 3 mps 763 mmHg 54%
    01:00 +25°C° 0 mm 4 mps 763 mmHg 55%
    02:00 +25°C° 0 mm 5 mps 763 mmHg 55%
    03:00 +23°C° 0 mm 5 mps 763 mmHg 60%
    04:00 +22°C° 0 mm 5 mps 763 mmHg 66%
    05:00 +22°C° 0 mm 5 mps 763 mmHg 72%
    06:00 +23°C° 0 mm 5 mps 763 mmHg 67%
    07:00 +26°C° 0 mm 5 mps 763 mmHg 61%
    08:00 +27°C° 0 mm 5 mps 764 mmHg 58%
    09:00 +29°C° 0 mm 5 mps 764 mmHg 51%
    10:00 +33°C° 0 mm 5 mps 764 mmHg 44%
    11:00 +35°C° 0 mm 6 mps 764 mmHg 37%
    12:00 +36°C° 0 mm 6 mps 763 mmHg 36%
    13:00 +36°C° 0 mm 6 mps 763 mmHg 35%
    14:00 +38°C° 0 mm 7 mps 762 mmHg 35%
    15:00 +35°C° 0 mm 7 mps 762 mmHg 38%
    16:00 +34°C° 0 mm 6 mps 762 mmHg 42%
    17:00 +33°C° 0 mm 6 mps 762 mmHg 46%
    18:00 +30°C° 0 mm 5 mps 762 mmHg 57%
    19:00 +27°C° 0 mm 3 mps 762 mmHg 69%
    20:00 +25°C° 0 mm 2 mps 763 mmHg 81%
    21:00 +24°C° 0 mm 2 mps 763 mmHg 83%
    22:00 +24°C° 0 mm 2 mps 763 mmHg 84%
    23:00 +24°C° 0 mm 1 mps 763 mmHg 85%

    Tomorrow, 24 August, Saturday

    Time Temperature Precipitation Wind Pressure Humidity
    00:00 +24°C° 0 mm 1 mps 763 mmHg 83%
    01:00 +24°C° 0 mm 2 mps 763 mmHg 81%
    02:00 +24°C° 0 mm 2 mps 763 mmHg 79%
    03:00 +24°C° 0 mm 2 mps 763 mmHg 77%
    04:00 +24°C° 0 mm 2 mps 763 mmHg 76%
    05:00 +22°C° 0 mm 3 mps 763 mmHg 75%
    06:00 +26°C° 0 mm 4 mps 763 mmHg 67%
    07:00 +28°C° 0 mm 5 mps 763 mmHg 59%
    08:00 +30°C° 0 mm 6 mps 763 mmHg 51%
    09:00 +32°C° 0 mm 6 mps 763 mmHg 46%
    10:00 +34°C° 0 mm 7 mps 763 mmHg 42%
    11:00 +35°C° 0 mm 7 mps 763 mmHg 38%
    12:00 +35°C° 0 mm 7 mps 763 mmHg 38%
    13:00 +35°C° 0 mm 7 mps 763 mmHg 39%
    14:00 +35°C° 0 mm 7 mps 762 mmHg 39%
    15:00 +34°C° 0 mm 7 mps 762 mmHg 42%
    16:00 +33°C° 0 mm 7 mps 762 mmHg 46%
    17:00 +32°C° 0 mm 7 mps 762 mmHg 49%
    18:00 +29°C° 0 mm 5 mps 762 mmHg 60%
    19:00 +27°C° 0 mm 4 mps 762 mmHg 72%
    20:00 +24°C° 0 mm 3 mps 762 mmHg 83%
    21:00 +24°C° 0 mm 3 mps 762 mmHg 84%
    22:00 +24°C° 0 mm 3 mps 762 mmHg 85%
    23:00 +23°C° 0 mm 2 mps 762 mmHg 86%

    Day after tomorrow, 25 August, Sunday

    Time Temperature Precipitation Wind Pressure Humidity
    00:00 +23°C° 0 mm 2 mps 762 mmHg 85%
    01:00 +23°C° 0 mm 2 mps 762 mmHg 84%
    02:00 +23°C° 0 mm 2 mps 762 mmHg 83%
    03:00 +23°C° 0 mm 2 mps 761 mmHg 82%
    04:00 +23°C° 0 mm 2 mps 761 mmHg 80%
    05:00 +22°C° 0 mm 3 mps 761 mmHg 79%
    06:00 +25°C° 0 mm 3 mps 761 mmHg 71%
    07:00 +27°C° 0 mm 4 mps 761 mmHg 62%
    08:00 +29°C° 0 mm 5 mps 762 mmHg 53%
    09:00 +32°C° 0 mm 6 mps 762 mmHg 49%
    10:00 +33°C° 0 mm 6 mps 762 mmHg 46%
    11:00 +35°C° 0 mm 7 mps 761 mmHg 42%
    12:00 +35°C° 0 mm 7 mps 761 mmHg 41%
    13:00 +35°C° 0 mm 8 mps 761 mmHg 41%
    14:00 +35°C° 0 mm 8 mps 761 mmHg 40%
    15:00 +34°C° 0 mm 7 mps 761 mmHg 44%
    16:00 +33°C° 0 mm 7 mps 761 mmHg 49%
    17:00 +32°C° 0 mm 7 mps 761 mmHg 53%
    18:00 +29°C° 0 mm 6 mps 761 mmHg 63%
    19:00 +27°C° 0 mm 5 mps 761 mmHg 73%
    20:00 +25°C° 0 mm 4 mps 761 mmHg 83%
    21:00 +25°C° 0 mm 4 mps 761 mmHg 85%
    22:00 +24°C° 0 mm 3 mps 762 mmHg 87%
    23:00 +24°C° 0 mm 3 mps 762 mmHg 89%

    26 August, Monday

    Time Temperature Precipitation Wind Pressure Humidity
    00:00 +24°C° 0 mm 3 mps 762 mmHg 88%
    01:00 +22°C° 0 mm 3 mps 761 mmHg 87%
    02:00 +22°C° 0 mm 3 mps 761 mmHg 87%
    03:00 +22°C° 0 mm 3 mps 761 mmHg 86%
    04:00 +22°C° 0 mm 3 mps 761 mmHg 85%
    05:00 +22°C° 0 mm 3 mps 761 mmHg 84%
    06:00 +25°C° 0 mm 3 mps 761 mmHg 76%
    07:00 +26°C° 0 mm 4 mps 761 mmHg 69%
    08:00 +28°C° 0 mm 4 mps 762 mmHg 61%
    09:00 +30°C° 0 mm 5 mps 762 mmHg 53%
    10:00 +33°C° 0 mm 5 mps 762 mmHg 45%
    11:00 +35°C° 0 mm 6 mps 762 mmHg 37%
    12:00 +36°C° 0 mm 6 mps 762 mmHg 36%
    13:00 +36°C° 0 mm 7 mps 761 mmHg 35%
    14:00 +36°C° 0 mm 7 mps 761 mmHg 34%
    15:00 +34°C° 0 mm 7 mps 761 mmHg 40%
    16:00 +33°C° 0 mm 7 mps 761 mmHg 46%
    17:00 +32°C° 0 mm 7 mps 761 mmHg 52%
    18:00 +29°C° 0 mm 6 mps 761 mmHg 63%
    19:00 +26°C° 0 mm 5 mps 762 mmHg 74%
    20:00 +23°C° 0 mm 4 mps 762 mmHg 86%
    21:00 +23°C° 0 mm 4 mps 762 mmHg 88%
    22:00 +22°C° 0 mm 3 mps 762 mmHg 90%
    23:00 +22°C° 0 mm 3 mps 762 mmHg 92%

    27 August, Tuesday

    Time Temperature Precipitation Wind Pressure Humidity
    00:00 +22°C° 0 mm 3 mps 762 mmHg 93%
    01:00 +21°C° 0 mm 2 mps 762 mmHg 93%
    02:00 +21°C° 0 mm 2 mps 762 mmHg 93%
    03:00 +21°C° 0 mm 2 mps 762 mmHg 93%
    04:00 +21°C° 0 mm 2 mps 762 mmHg 93%
    05:00 +20°C° 0 mm 2 mps 762 mmHg 93%
    06:00 +23°C° 0 mm 2 mps 762 mmHg 82%
    07:00 +25°C° 0 mm 2 mps 762 mmHg 72%
    08:00 +27°C° 0 mm 3 mps 762 mmHg 62%
    09:00 +29°C° 0 mm 4 mps 762 mmHg 53%
    10:00 +32°C° 0 mm 5 mps 762 mmHg 43%
    11:00 +34°C° 0 mm 6 mps 762 mmHg 34%
    12:00 +34°C° 0 mm 6 mps 762 mmHg 35%
    13:00 +34°C° 0 mm 7 mps 762 mmHg 36%
    14:00 +34°C° 0 mm 7 mps 761 mmHg 36%
    15:00 +33°C° 0 mm 7 mps 761 mmHg 39%
    16:00 +32°C° 0 mm 7 mps 761 mmHg 42%
    17:00 +30°C° 0 mm 6 mps 761 mmHg 45%
    18:00 +28°C° 0 mm 5 mps 762 mmHg 58%
    19:00 +26°C° 0 mm 4 mps 762 mmHg 71%
    20:00 +22°C° 0 mm 3 mps 762 mmHg 84%
    21:00 +22°C° 0 mm 3 mps 762 mmHg 86%
    22:00 +22°C° 0 mm 3 mps 762 mmHg 89%
    23:00 +21°C° 0 mm 2 mps 763 mmHg 91%

    28 August, Wednesday

    Time Temperature Precipitation Wind Pressure Humidity
    00:00 +21°C° 0 mm 2 mps 762 mmHg 91%
    01:00 +21°C° 0 mm 2 mps 762 mmHg 91%
    02:00 +20°C° 0 mm 2 mps 762 mmHg 92%
    03:00 +20°C° 0 mm 2 mps 762 mmHg 91%
    04:00 +20°C° 0 mm 2 mps 762 mmHg 90%
    05:00 +19°C° 0 mm 3 mps 762 mmHg 89%
    06:00 +21°C° 0 mm 3 mps 762 mmHg 77%
    07:00 +23°C° 0 mm 4 mps 763 mmHg 66%
    08:00 +26°C° 0 mm 4 mps 763 mmHg 54%
    09:00 +28°C° 0 mm 5 mps 763 mmHg 47%
    10:00 +30°C° 0 mm 6 mps 763 mmHg 41%
    11:00 +33°C° 0 mm 7 mps 763 mmHg 35%
    12:00 +33°C° 0 mm 7 mps 762 mmHg 34%
    13:00 +33°C° 0 mm 8 mps 762 mmHg 33%
    14:00 +33°C° 0 mm 8 mps 762 mmHg 32%
    15:00 +32°C° 0 mm 8 mps 762 mmHg 35%
    16:00 +30°C° 0 mm 7 mps 762 mmHg 38%
    17:00 +29°C° 0 mm 7 mps 762 mmHg 40%
    18:00 +27°C° 0 mm 6 mps 762 mmHg 51%
    19:00 +25°C° 0 mm 5 mps 762 mmHg 61%
    20:00 +21°C° 0 mm 4 mps 762 mmHg 71%
    21:00 +21°C° 0 mm 4 mps 762 mmHg 75%
    22:00 +20°C° 0 mm 3 mps 762 mmHg 78%
    23:00 +19°C° 0 mm 3 mps 762 mmHg 81%
    Show more